Weather History for KASE - March, 2013

Change the Weather History Date:

Monday, March 4, 2013

  Actual Average Record
Temperature  
Mean Temperature 23 °F 27 °F  
Max Temperature 38 °F 39 °F 62 °F (1987)
Min Temperature 8 °F 15 °F -6 °F (2002)
Degree Days  
Heating Degree Days 42 38  
Month to date heating degree days 143 154  
Since 1 July heating degree days 6159 6473  
Cooling Degree Days 0 0  
Month to date cooling degree days 0 0  
Year to date cooling degree days 0 0  
Moisture  
Dew Point 24 °F    
Average Humidity 75    
Maximum Humidity 100    
Minimum Humidity 50    
Precipitation  
Precipitation 0.17 in 0.03 in 0.65 in (1981)
Month to date precipitation 0.19 0.15  
Year to date precipitation 1.34 2.39  
Sea Level Pressure  
Sea Level Pressure 29.85 in    
Wind  
Wind Speed 6 mph (NNW)    
Max Wind Speed 30 mph    
Max Gust Speed 43 mph    
Visibility 4 miles    
Events Fog , Snow    
T = Trace of Precipitation, MM = Missing Value Source: NWS Daily Summary

Daily Weather History Graph

Daily Weather History Graph

Search for Another Location

Airport or City:

Trip Planner

Search our weather history database for the weather conditions in past years. The results will help you decide how hot, cold, wet, or windy it might be!

Date:

Astronomy

Mar. 04, 2013 Rise Set
Actual Time 6:35 AM MST 6:03 PM MST
Civil Twilight 6:08 AM MST 6:30 PM MST
Nautical Twilight 5:37 AM MST 7:01 PM MST
Astronomical Twilight 5:06 AM MST 7:32 PM MST
Moon 12:46 AM MST (3/4) 10:49 AM MST (3/4)
Length of Visible Light 12h 21m
Length of Day
11h 28m
Waning Gibbous, 51% of the Moon is Illuminated
Mar 4
Waning Gibbous
Mar 4
Last Quarter
Mar 11
New
Mar 19
First Quarter
Mar 27
Full

Hourly Weather History & Observations

Time (MST) Temp. Windchill Dew Point Humidity Pressure Visibility Wind Dir Wind Speed Gust Speed Precip Events Conditions
12:05 AM 30.2 °F - 30.2 °F 100% 29.84 in 1.2 mi Calm Calm - 0.00 in Snow Light Snow
12:28 AM 30.2 °F - 30.2 °F 100% 29.83 in 0.5 mi Calm Calm - 0.01 in Fog , Snow Snow
12:53 AM 30.9 °F - 30.0 °F 96% 29.69 in 0.5 mi Calm Calm - 0.02 in Fog , Snow Light Snow
1:35 AM 30.2 °F - 30.2 °F 100% 29.83 in 1.2 mi Calm Calm - 0.03 in Snow Light Snow
2:29 AM 30.2 °F - 30.2 °F 100% 29.82 in 2.0 mi Calm Calm - 0.02 in Snow Light Snow
2:40 AM 30.2 °F - 30.2 °F 100% 29.81 in 3.0 mi Calm Calm - 0.02 in Snow Light Snow
2:53 AM 30.0 °F - 30.0 °F 100% 29.68 in 3.0 mi Calm Calm - 0.02 in Snow Light Snow
3:01 AM 30.2 °F 26.7 °F 30.2 °F 100% 29.81 in 2.0 mi SE 3.5 mph - 0.00 in Snow Light Snow
3:04 AM 30.2 °F 26.7 °F 30.2 °F 100% 29.81 in 1.8 mi SE 3.5 mph - 0.00 in Snow Light Snow
3:20 AM 30.2 °F - 30.2 °F 100% 29.80 in 1.5 mi Calm Calm - 0.01 in Snow Light Snow
3:53 AM 30.9 °F - 30.0 °F 96% 29.67 in 1.2 mi Calm Calm - 0.02 in Snow Light Snow
4:09 AM 30.2 °F - 30.2 °F 100% 29.80 in 2.0 mi Calm Calm - 0.01 in Snow Light Snow
4:19 AM 30.2 °F - 30.2 °F 100% 29.80 in 4.0 mi Calm Calm - 0.01 in Snow Light Snow
4:34 AM 30.2 °F - 30.2 °F 100% 29.80 in 5.0 mi Calm Calm - 0.01 in Snow Light Snow
4:53 AM 30.9 °F - 28.9 °F 92% 29.68 in 6.0 mi Calm Calm - 0.01 in Snow Light Snow
5:09 AM 30.2 °F - 30.2 °F 100% 29.80 in 1.8 mi Calm Calm - 0.00 in   Overcast
5:18 AM 30.2 °F - 30.2 °F 100% 29.81 in 0.5 mi Calm Calm - 0.00 in Fog , Snow Light Snow
5:26 AM 30.2 °F - 30.2 °F 100% 29.80 in 1.0 mi Calm Calm - 0.00 in Snow Light Snow
5:39 AM 30.2 °F - 30.2 °F 100% 29.81 in 3.0 mi Calm Calm - 0.00 in   Overcast
5:51 AM 30.2 °F - 30.2 °F 100% 29.81 in 2.5 mi Calm Calm - 0.00 in Snow Light Snow
5:53 AM 30.9 °F - 30.0 °F 96% 29.69 in 2.0 mi Calm Calm - 0.00 in Snow Light Snow
6:00 AM 30.2 °F 26.7 °F 28.4 °F 93% 29.81 in 1.2 mi North 3.5 mph - 0.01 in Snow Light Snow
6:28 AM 30.2 °F 21.3 °F 28.4 °F 93% 29.82 in 1.0 mi NNW 10.4 mph 32.2 mph 0.02 in Snow Light Snow
6:36 AM 30.2 °F 21.3 °F 26.6 °F 86% 29.81 in 0.8 mi NNW 10.4 mph 24.2 mph 0.02 in Snow Light Snow
6:44 AM 30.2 °F 23.4 °F 26.6 °F 86% 29.82 in 1.2 mi North 6.9 mph 18.4 mph 0.02 in Snow Light Snow
6:53 AM 30.0 °F 23.2 °F 28.0 °F 92% 29.73 in 5.0 mi NNE 6.9 mph - 0.02 in Snow Light Snow
7:05 AM 30.2 °F 25.4 °F 28.4 °F 93% 29.83 in 1.8 mi North 4.6 mph - 0.00 in Snow Light Snow
7:17 AM 30.2 °F 22.6 °F 26.6 °F 86% 29.82 in 0.8 mi North 8.1 mph 17.3 mph 0.00 in Snow Light Snow
7:42 AM 30.2 °F 26.7 °F 28.4 °F 93% 29.83 in 1.0 mi NNE 3.5 mph - 0.02 in Snow Light Snow
7:53 AM 30.0 °F 26.5 °F 28.0 °F 92% 29.74 in 6.0 mi ENE 3.5 mph - 0.02 in Snow Light Snow
8:37 AM 30.2 °F - 28.4 °F 93% 29.83 in 6.0 mi Calm Calm - 0.00 in Snow Light Snow
8:46 AM 30.2 °F - 28.4 °F 93% 29.83 in 3.0 mi Calm Calm - 0.00 in Snow Light Snow
8:53 AM 30.0 °F - 28.0 °F 92% 29.75 in 6.0 mi Calm Calm - 0.00 in Snow Light Snow
9:53 AM 32.0 °F - 28.9 °F 88% 29.75 in 6.0 mi Calm Calm - 0.00 in Snow Light Snow
10:53 AM 37.9 °F 33.5 °F 26.1 °F 62% 29.72 in 7.0 mi North 5.8 mph - 0.00 in   Mostly Cloudy
11:53 AM 36.0 °F 27.1 °F 25.0 °F 64% 29.71 in 7.0 mi NW 13.8 mph 19.6 mph N/A   Overcast
12:53 PM 33.1 °F 23.9 °F 26.1 °F 75% 29.72 in 3.0 mi NNW 12.7 mph 25.3 mph 0.00 in Snow Light Snow
12:57 PM 32.0 °F 20.8 °F 26.6 °F 80% 29.81 in 2.0 mi North 17.3 mph 25.3 mph 0.00 in Snow Light Snow
1:02 PM 30.2 °F 17.4 °F 26.6 °F 86% 29.81 in 2.0 mi North 20.7 mph 27.6 mph 0.00 in Snow Light Snow
1:22 PM 28.4 °F 15.8 °F 24.8 °F 86% 29.85 in 0.8 mi NNW 18.4 mph 35.7 mph 0.00 in Snow Light Snow
1:35 PM 24.8 °F 9.6 °F 21.2 °F 86% 29.87 in 0.2 mi NNW 23.0 mph 42.6 mph 0.01 in Fog , Snow Heavy Snow
1:53 PM 25.0 °F 12.2 °F 21.0 °F 85% 29.84 in 0.2 mi NNW 16.1 mph 31.1 mph 0.01 in Fog , Snow Snow
2:04 PM 26.6 °F 15.2 °F 21.2 °F 80% 29.88 in 6.0 mi NNW 13.8 mph 24.2 mph 0.00 in Snow Light Snow
2:11 PM 26.6 °F 15.2 °F 19.4 °F 74% 29.90 in 10.0 mi NNW 13.8 mph 28.8 mph 0.00 in Snow Light Snow
2:53 PM 28.0 °F 16.5 °F 14.0 °F 56% 29.88 in 10.0 mi NNW 15.0 mph 26.5 mph 0.00 in   Mostly Cloudy
2:58 PM 28.4 °F 17.5 °F 12.2 °F 51% 29.93 in 10.0 mi NNW 13.8 mph 26.5 mph N/A   Mostly Cloudy
3:53 PM 26.1 °F 12.7 °F 10.0 °F 51% 29.94 in 10.0 mi NNW 18.4 mph 27.6 mph N/A   Mostly Cloudy
4:53 PM 25.0 °F 14.2 °F 10.0 °F 53% 30.01 in 10.0 mi North 11.5 mph 23.0 mph N/A   Mostly Cloudy
5:53 PM 23.0 °F 11.1 °F 6.1 °F 48% 30.06 in 10.0 mi NNW 12.7 mph - N/A   Scattered Clouds
6:53 PM 19.9 °F 13.4 °F 6.1 °F 55% 30.13 in 10.0 mi NW 4.6 mph - N/A   Clear
7:53 PM 15.1 °F 7.7 °F 6.1 °F 68% 30.18 in 10.0 mi SSE 4.6 mph - N/A   Clear
8:53 PM 12.9 °F 2.6 °F 3.9 °F 67% 30.22 in 10.0 mi South 6.9 mph - N/A   Clear
9:53 PM 12.9 °F 1.6 °F 3.0 °F 65% 30.23 in 10.0 mi SW 8.1 mph - N/A   Clear
10:53 PM 10.9 °F 0.2 °F 1.9 °F 67% 30.22 in 10.0 mi SSW 6.9 mph - N/A   Clear